AAL2953 KLAS-KPHX

Flight info

Callsign AAL2953
Flight time 0h 43m
Altitude 29000
Route RASLR3 ZAYNE WOTRO BRUSR1
Aircraft A321/M-SDE3FGHIRWY/LB1

Departure

Time 2026-04-30 17:52
Airport Harry Reid International Airport (KLAS)

Arrival

Time 2026-04-30 18:36
Airport Phoenix Sky Harbor International Airport (KPHX)
Time Latitude Longitude Altitude Speed Heading
2026-04-30 17:39 36.07973 -115.13691 2078 ft 2 kts 117°
2026-04-30 17:41 36.07982 -115.13702 2078 ft 0 kts 136°
2026-04-30 17:42 36.07968 -115.13686 2078 ft 5 kts 134°
2026-04-30 17:43 36.07910 -115.13613 2078 ft 7 kts 135°
2026-04-30 17:44 36.07856 -115.13666 2080 ft 6 kts 296°
2026-04-30 17:44 36.07827 -115.13842 2087 ft 8 kts 269°
2026-04-30 17:46 36.07827 -115.14274 2099 ft 18 kts 270°
2026-04-30 17:47 36.07863 -115.14876 2116 ft 13 kts 275°
2026-04-30 17:48 36.07838 -115.15331 2134 ft 10 kts 213°
2026-04-30 17:48 36.07804 -115.15820 2153 ft 22 kts 270°
2026-04-30 17:49 36.07671 -115.16384 2173 ft 19 kts 204°
2026-04-30 17:50 36.07414 -115.16679 2189 ft 10 kts 302°
2026-04-30 17:51 36.08539 -115.16108 2144 ft 148 kts 24°
2026-04-30 17:52 36.11945 -115.14169 3537 ft 201 kts 31°
2026-04-30 17:53 36.13633 -115.04309 5576 ft 268 kts 82°
2026-04-30 17:54 36.14510 -114.94997 8375 ft 279 kts 80°
2026-04-30 17:55 36.14733 -114.85217 11189 ft 296 kts 102°
2026-04-30 17:56 36.11865 -114.75526 13822 ft 314 kts 129°
2026-04-30 17:57 36.06080 -114.70578 14726 ft 359 kts 147°
2026-04-30 17:58 35.99488 -114.65427 16166 ft 380 kts 147°
2026-04-30 17:59 35.90431 -114.58255 18358 ft 395 kts 147°
2026-04-30 18:00 35.81033 -114.50821 20359 ft 410 kts 147°
2026-04-30 18:00 35.73768 -114.45080 21739 ft 421 kts 146°
2026-04-30 18:01 35.68926 -114.40983 22695 ft 425 kts 140°
2026-04-30 18:02 35.62121 -114.33874 24011 ft 432 kts 137°
2026-04-30 18:02 35.55299 -114.26653 25555 ft 431 kts 137°
2026-04-30 18:03 35.48523 -114.19513 27169 ft 425 kts 138°
2026-04-30 18:04 35.41801 -114.12451 28425 ft 427 kts 138°
2026-04-30 18:05 35.32779 -114.02709 29034 ft 447 kts 129°
2026-04-30 18:06 35.27923 -113.88403 29041 ft 475 kts 102°
2026-04-30 18:07 35.24680 -113.72422 29059 ft 489 kts 102°
2026-04-30 18:08 35.22207 -113.60307 29072 ft 491 kts 101°
2026-04-30 18:10 35.14629 -113.28101 29091 ft 496 kts 120°
2026-04-30 18:11 35.01304 -113.03734 29107 ft 489 kts 126°
2026-04-30 18:13 34.91775 -112.86557 29113 ft 492 kts 126°
2026-04-30 18:13 34.86707 -112.77441 29086 ft 470 kts 127°
2026-04-30 18:14 34.82619 -112.70094 29081 ft 433 kts 128°
2026-04-30 18:15 34.72472 -112.52020 27359 ft 436 kts 128°
2026-04-30 18:16 34.68590 -112.46527 25768 ft 425 kts 140°
2026-04-30 18:16 34.64117 -112.42004 24183 ft 417 kts 143°
2026-04-30 18:17 34.61849 -112.39807 23536 ft 417 kts 143°
2026-04-30 18:17 34.59597 -112.37624 22943 ft 417 kts 143°
2026-04-30 18:17 34.55097 -112.33229 21898 ft 412 kts 144°
2026-04-30 18:18 34.52879 -112.31064 21421 ft 409 kts 144°
2026-04-30 18:18 34.50662 -112.28902 20942 ft 406 kts 144°
2026-04-30 18:18 34.48438 -112.26735 20531 ft 400 kts 144°
2026-04-30 18:18 34.46261 -112.24657 20317 ft 390 kts 148°
2026-04-30 18:19 34.43940 -112.23098 20143 ft 374 kts 160°
2026-04-30 18:19 34.41495 -112.22149 19718 ft 367 kts 170°
2026-04-30 18:19 34.39034 -112.21500 19278 ft 364 kts 171°
2026-04-30 18:19 34.36548 -112.20884 18821 ft 362 kts 171°
2026-04-30 18:20 34.34061 -112.20264 18373 ft 360 kts 171°
2026-04-30 18:20 34.31630 -112.19647 17955 ft 357 kts 171°
2026-04-30 18:20 34.29213 -112.19031 17560 ft 353 kts 171°
2026-04-30 18:20 34.26820 -112.18418 17128 ft 352 kts 171°
2026-04-30 18:21 34.24435 -112.17802 16688 ft 350 kts 171°
2026-04-30 18:21 34.22050 -112.17186 16247 ft 349 kts 171°
2026-04-30 18:21 34.19672 -112.16573 15798 ft 348 kts 171°
2026-04-30 18:21 34.17260 -112.15950 15338 ft 347 kts 170°
2026-04-30 18:22 34.14888 -112.15338 14880 ft 346 kts 170°
2026-04-30 18:22 34.10239 -112.14150 14323 ft 332 kts 172°
2026-04-30 18:22 34.07978 -112.13881 14193 ft 320 kts 181°
2026-04-30 18:23 34.05730 -112.13997 13851 ft 315 kts 187°
2026-04-30 18:23 34.03571 -112.14239 13560 ft 310 kts 188°
2026-04-30 18:23 34.01429 -112.14494 13158 ft 308 kts 188°
2026-04-30 18:23 33.99294 -112.14748 12685 ft 305 kts 188°
2026-04-30 18:24 33.95148 -112.15223 11857 ft 295 kts 187°
2026-04-30 18:24 33.93106 -112.15453 11465 ft 294 kts 187°
2026-04-30 18:24 33.91072 -112.15699 11082 ft 295 kts 189°
2026-04-30 18:25 33.89021 -112.16098 10694 ft 295 kts 191°
2026-04-30 18:25 33.84940 -112.16966 9944 ft 296 kts 190°
2026-04-30 18:25 33.82901 -112.17400 9575 ft 298 kts 189°
2026-04-30 18:26 33.78741 -112.18277 8823 ft 296 kts 189°
2026-04-30 18:26 33.76758 -112.18696 8658 ft 283 kts 190°
2026-04-30 18:26 33.74820 -112.19103 8477 ft 273 kts 190°
2026-04-30 18:27 33.71070 -112.19893 7919 ft 267 kts 190°
2026-04-30 18:27 33.69253 -112.20277 7751 ft 260 kts 190°
2026-04-30 18:28 33.65685 -112.21034 7262 ft 255 kts 190°
2026-04-30 18:28 33.63930 -112.21403 6940 ft 255 kts 189°
2026-04-30 18:28 33.60404 -112.22145 6295 ft 255 kts 189°
2026-04-30 18:29 33.58634 -112.22521 6036 ft 247 kts 189°
2026-04-30 18:29 33.53730 -112.23575 5295 ft 228 kts 189°
2026-04-30 18:30 33.51242 -112.24113 5008 ft 208 kts 189°
2026-04-30 18:30 33.48009 -112.24805 4497 ft 194 kts 189°
2026-04-30 18:31 33.46668 -112.24895 4316 ft 191 kts 168°
2026-04-30 18:31 33.44714 -112.22849 4021 ft 190 kts 117°
2026-04-30 18:32 33.44115 -112.19769 3782 ft 191 kts 94°
2026-04-30 18:32 33.44090 -112.18164 3536 ft 190 kts 91°
2026-04-30 18:32 33.44112 -112.15064 3041 ft 178 kts 91°
2026-04-30 18:33 33.44111 -112.13593 2815 ft 167 kts 90°
2026-04-30 18:33 33.44102 -112.10960 2417 ft 152 kts 91°
2026-04-30 18:33 33.44098 -112.09703 2236 ft 152 kts 91°
2026-04-30 18:34 33.44096 -112.08439 2048 ft 152 kts 90°
2026-04-30 18:34 33.44083 -112.05891 1652 ft 152 kts 90°
2026-04-30 18:34 33.44083 -112.04636 1459 ft 151 kts 90°
2026-04-30 18:35 33.44085 -112.03378 1263 ft 151 kts 90°
2026-04-30 18:35 33.44083 -112.02135 1133 ft 144 kts 88°
2026-04-30 18:35 33.44084 -112.01070 1132 ft 104 kts 90°
2026-04-30 18:36 33.44064 -112.00159 1138 ft 13 kts 121°
2026-04-30 18:36 33.44002 -112.00105 1138 ft 10 kts 155°
2026-04-30 18:36 33.43903 -112.00001 1136 ft 11 kts 90°
2026-04-30 18:37 33.43903 -111.99901 1138 ft 11 kts 90°
2026-04-30 18:37 33.43903 -111.99816 1139 ft 9 kts 90°
2026-04-30 18:37 33.43902 -111.99744 1139 ft 6 kts 95°
2026-04-30 18:37 33.43870 -111.99710 1139 ft 7 kts 168°
2026-04-30 18:38 33.43837 -111.99703 1138 ft 0 kts 172°
2026-04-30 18:38 33.43830 -111.99702 1138 ft 1 kts 172°
2026-04-30 18:38 33.43829 -111.99702 1138 ft 0 kts 172°